Location: La Sarre
(48.8000°N, 79.2000°W)
Time: 02:43:10
(UTC-05:00)

ISS - Visible Passes

Search period start: 01 December 2021 00:00
Search period end: 11 December 2021 00:00
Orbit: 417 x 423 km, 51.6° (Epoch: 01 December)

Date Brightness Start Highest point End Pass type
(mag) Time Alt. Az. Time Alt. Az. Time Alt. Az.
01 Dec -3.4 17:20:24 10° WNW 17:23:44 51° N 17:26:23 15° ENE visible
01 Dec -2.1 18:57:18 10° WNW 18:59:22 34° WNW 18:59:22 34° WNW visible
02 Dec -3.9 18:10:06 10° WNW 18:13:31 80° NNE 18:14:13 53° E visible
03 Dec -3.7 17:22:54 10° WNW 17:26:17 65° NNE 17:29:10 13° E visible
03 Dec -1.9 18:59:51 10° WNW 19:02:10 31° WSW 19:02:10 31° WSW visible
04 Dec -3.1 18:12:33 10° WNW 18:15:53 55° SSW 18:17:15 31° SE visible
05 Dec -3.6 17:25:18 10° WNW 17:28:42 77° SSW 17:32:06 10° ESE visible
05 Dec -1.2 19:02:48 10° W 19:05:07 17° SW 19:05:32 17° SSW visible
06 Dec -1.6 18:15:11 10° W 18:18:03 25° SW 18:20:54 10° SSE visible
07 Dec -2.2 17:27:46 10° WNW 17:30:56 37° SSW 17:34:05 10° SE visible
08 Dec -0.4 18:18:58 10° WSW 18:19:58 11° SW 18:20:59 10° SSW visible
09 Dec -0.7 17:30:40 10° W 17:32:57 17° SW 17:35:12 10° S visible
